KF0AIT Weather Reports


Display with metric or nautical units.
time (UTC)temp
F
wind
direction
speed
MPH
gust
MPH
rain 1hr
in
rain 24hr
in
rain mn
in
humidity
%
barometer
mb
20260903075403 72 0 0.0 0.0 0.00 0.00 0.00 86 1003.9
20260903074503 72 0 0.0 0.0 0.00 0.00 0.00 86 1003.9
20260903073603 72 0 0.0 0.0 0.00 0.00 0.00 85 1003.9
20260903072724 72 0 0.0 0.0 0.00 0.00 0.00 85 1003.9
20260903071803 72 0 0.0 0.0 0.00 0.00 0.00 84 1003.9
20260903070924 72 0 0.0 0.0 0.00 0.00 0.00 84 1003.9
20260903070003 72 0 0.0 0.0 0.00 0.00 0.00 83 1003.9
20260903065424 72 0 0.0 0.0 0.00 0.00 0.00 83 1003.9
20260903064503 72 0 0.0 0.0 0.00 0.00 0.00 82 1003.9
20260903063603 72 0 0.0 0.0 0.00 0.00 0.00 82 1003.9
20260903062703 73 0 0.0 0.0 0.00 0.00 0.00 81 1003.9
20260903061824 73 0 0.0 0.0 0.00 0.00 0.00 81 1003.9
20260903060903 73 0 0.0 0.0 0.00 0.00 0.00 81 1003.9
20260903060003 73 0 0.0 0.0 0.00 0.00 0.00 81 1003.9
20260903055403 73 0 0.0 0.0 0.00 0.00 0.00 81 1003.9
20260903054503 73 0 0.0 0.0 0.00 0.00 0.00 80 1003.9
20260903053603 73 0 0.0 0.0 0.00 0.00 0.00 80 1003.9
20260903052703 73 0 0.0 0.0 0.00 0.00 0.00 79 1003.9
20260903051824 74 0 0.0 0.0 0.00 0.00 0.00 79 1003.9
20260903050924 74 0 0.0 0.0 0.00 0.00 0.00 79 1005.0
20260903050003 74 0 0.0 0.0 0.00 0.00 0.00 79 1005.0
20260903045403 74 0 0.0 0.0 0.00 0.00 0.00 79 1005.0
20260903044524 74 0 0.0 0.0 0.00 0.00 0.00 78 1005.0
20260903043603 74 0 0.0 0.0 0.00 0.00 0.00 78 1005.0
20260903042703 74 135 0.0 1.0 0.00 0.00 0.00 78 1005.0
20260903041824 75 0 0.0 0.0 0.00 0.00 0.00 77 1005.0
20260903040924 75 0 0.0 0.0 0.00 0.00 0.00 76 1005.0
20260903040003 75 0 0.0 0.0 0.00 0.00 0.00 76 1005.0
20260903035403 75 0 0.0 0.0 0.00 0.00 0.00 75 1005.0
20260903034524 76 0 0.0 0.0 0.00 0.00 0.00 75 1005.0
20260903033603 76 0 0.0 0.0 0.00 0.00 0.00 74 1005.0
20260903032703 76 0 0.0 0.0 0.00 0.00 0.00 73 1005.0
20260903031803 76 0 0.0 0.0 0.00 0.00 0.00 73 1005.0
20260903030903 78 0 0.0 0.0 0.00 0.00 0.00 70 1005.0
20260903030004 78 0 0.0 0.0 0.00 0.00 0.00 70 1005.0
20260903025403 78 0 0.0 0.0 0.00 0.00 0.00 70 1005.0
20260903024503 78 0 0.0 0.0 0.00 0.00 0.00 70 1005.0
20260903023603 78 0 0.0 0.0 0.00 0.00 0.00 69 1005.0
20260903022703 80 0 0.0 0.0 0.00 0.00 0.00 67 1005.0
20260903021803 80 0 0.0 0.0 0.00 0.00 0.00 67 1005.0
20260903020903 80 0 0.0 0.0 0.00 0.00 0.00 67 1005.0
20260903020003 80 0 0.0 0.0 0.00 0.00 0.00 67 1005.0
20260903015424 80 0 0.0 0.0 0.00 0.00 0.00 67 1005.0
20260903014505 80 0 0.0 0.0 0.00 0.00 0.00 67 1005.0
20260903013603 80 0 0.0 0.0 0.00 0.00 0.00 65 1005.0
20260903012703 81 0 0.0 0.0 0.00 0.00 0.00 64 1005.0
20260903011803 81 0 0.0 0.0 0.00 0.00 0.00 64 1005.0
20260903010903 82 0 0.0 0.0 0.00 0.00 0.00 62 1003.9
20260903010003 82 0 0.0 0.0 0.00 0.00 0.00 62 1003.9
20260903005403 82 0 0.0 0.0 0.00 0.00 0.00 62 1003.9
20260903004524 83 157 0.0 1.0 0.00 0.00 0.00 61 1003.9
20260903003603 83 0 0.0 0.0 0.00 0.00 0.00 60 1003.9
20260903002703 84 0 0.0 0.0 0.00 0.00 0.00 57 1003.9
20260903001824 84 0 0.0 0.0 0.00 0.00 0.00 57 1003.9
20260903000903 84 157 0.0 1.0 0.00 0.00 0.00 57 1003.9
20260903000003 84 157 0.0 1.0 0.00 0.00 0.00 57 1003.9
20260902235403 85 0 0.0 0.0 0.00 0.00 0.00 57 1003.9
20260902234524 85 146 0.0 1.0 0.00 0.00 0.00 55 1003.9
20260902233603 85 0 0.0 0.0 0.00 0.00 0.00 54 1003.9
20260902232703 85 0 0.0 0.0 0.00 0.00 0.00 54 1003.9
20260902231803 85 0 0.0 0.0 0.00 0.00 0.00 54 1003.9
20260902230903 86 157 0.0 2.0 0.00 0.00 0.00 54 1003.9
20260902230003 86 157 0.0 1.0 0.00 0.00 0.00 54 1003.9
20260902225403 86 0 0.0 0.0 0.00 0.00 0.00 54 1003.9
20260902224524 86 0 0.0 0.0 0.00 0.00 0.00 54 1003.9
20260902223603 86 0 0.0 0.0 0.00 0.00 0.00 54 1003.9
20260902222703 86 0 0.0 0.0 0.00 0.00 0.00 54 1003.9
20260902221803 86 0 0.0 0.0 0.00 0.00 0.00 55 1003.9
20260902220903 86 0 0.0 0.0 0.00 0.00 0.00 54 1003.9
20260902220003 86 0 0.0 0.0 0.00 0.00 0.00 55 1003.9
20260902215403 86 0 0.0 0.0 0.00 0.00 0.00 53 1003.9
20260902214503 86 0 0.0 0.0 0.00 0.00 0.00 57 1003.9
20260902213603 86 0 0.0 0.0 0.00 0.00 0.00 57 1003.9
20260902212724 86 0 0.0 0.0 0.00 0.00 0.00 57 1003.9
20260902211803 86 0 0.0 0.0 0.00 0.00 0.00 56 1003.9
20260902210903 86 0 0.0 0.0 0.00 0.00 0.00 57 1005.0
20260902210024 85 0 0.0 0.0 0.00 0.00 0.00 57 1005.0
20260902205403 85 157 0.0 2.0 0.00 0.00 0.00 57 1005.0
20260902204503 85 157 2.0 2.0 0.00 0.00 0.00 57 1005.0
20260902203603 85 0 0.0 0.0 0.00 0.00 0.00 59 1005.0
20260902202703 85 0 0.0 0.0 0.00 0.00 0.00 58 1005.0
20260902201804 85 67 0.0 1.0 0.00 0.00 0.00 60 1005.0
20260902200903 84 0 0.0 0.0 0.00 0.00 0.00 60 1005.0
20260902200003 84 78 0.0 2.0 0.00 0.00 0.00 61 1005.0
20260902195403 84 85 0.0 2.0 0.00 0.00 0.00 62 1005.0
20260902194524 84 157 2.0 2.0 0.00 0.00 0.00 62 1005.0
20260902193603 83 0 0.0 0.0 0.00 0.00 0.00 64 1005.0
20260902192703 83 157 0.0 1.0 0.00 0.00 0.00 64 1006.0
20260902191803 83 114 0.0 2.0 0.00 0.00 0.00 64 1006.0
20260902190903 83 139 0.0 1.0 0.00 0.00 0.00 65 1006.0
20260902190003 83 139 0.0 1.0 0.00 0.00 0.00 65 1006.0
20260902185403 82 157 0.0 3.0 0.00 0.00 0.00 66 1006.0
20260902184524 82 157 0.0 3.0 0.00 0.00 0.00 65 1006.0
20260902183603 81 137 0.0 4.0 0.00 0.00 0.00 65 1007.1
20260902182703 81 135 0.0 2.0 0.00 0.00 0.00 65 1007.1
20260902181803 80 140 0.0 4.0 0.00 0.00 0.00 66 1007.1
20260902180903 80 82 1.0 3.0 0.00 0.00 0.00 66 1007.1
20260902180005 80 0 0.0 0.0 0.00 0.00 0.00 66 1007.1
20260902175406 79 0 0.0 0.0 0.00 0.00 0.00 67 1008.1
20260902174524 78 45 0.0 1.0 0.00 0.00 0.00 69 1008.1
20260902173603 78 45 0.0 1.0 0.00 0.00 0.00 69 1008.1
20260902172703 78 0 0.0 0.0 0.00 0.00 0.00 69 1008.1
20260902171803 77 67 0.0 1.0 0.00 0.00 0.00 70 1008.1
20260902170903 76 67 1.0 1.0 0.00 0.00 0.00 71 1008.1
20260902170004 76 0 0.0 0.0 0.00 0.00 0.00 70 1008.1
20260902165403 76 0 0.0 0.0 0.00 0.00 0.00 72 1008.1
20260902164524 75 0 0.0 0.0 0.00 0.00 0.00 72 1008.1
20260902163603 74 0 0.0 0.0 0.00 0.00 0.00 72 1008.1
20260902162704 74 0 0.0 0.0 0.00 0.00 0.00 75 1008.1
20260902161803 73 0 0.0 0.0 0.00 0.00 0.00 77 1008.1
20260902160924 72 202 0.0 1.0 0.00 0.00 0.00 77 1008.1
20260902160003 72 202 0.0 1.0 0.00 0.00 0.00 79 1008.1
20260902155403 71 202 0.0 1.0 0.00 0.00 0.00 79 1008.1
20260902154503 71 0 0.0 0.0 0.00 0.00 0.00 80 1008.1
20260902153624 70 0 0.0 0.0 0.00 0.00 0.00 81 1008.1
20260902152703 69 202 0.0 1.0 0.00 0.00 0.00 81 1009.2
20260902151803 69 202 0.0 2.0 0.00 0.00 0.00 81 1009.2
20260902150903 69 202 2.0 2.0 0.00 0.00 0.00 81 1008.1
20260902150025 68 0 0.0 0.0 0.00 0.00 0.00 81 1008.1
20260902145424 68 0 0.0 0.0 0.00 0.00 0.00 82 1009.2
20260902144503 67 202 0.0 1.0 0.00 0.00 0.00 82 1009.2
20260902143603 67 0 0.0 0.0 0.00 0.00 0.00 82 1008.1
20260902142705 66 0 0.0 0.0 0.00 0.00 0.00 82 1009.2
20260902141803 66 157 0.0 2.0 0.00 0.00 0.00 82 1009.2
20260902140924 66 157 0.0 2.0 0.00 0.00 0.00 81 1010.2
20260902140004 67 157 0.0 1.0 0.00 0.00 0.00 80 1010.2
20260902135403 67 0 0.0 0.0 0.00 0.00 0.00 79 1008.1
20260902134503 67 0 0.0 0.0 0.00 0.00 0.00 78 1008.1
20260902133603 67 0 0.0 0.0 0.00 0.00 0.00 77 1009.2
20260902132703 67 90 0.0 1.0 0.00 0.00 0.00 78 1009.2
20260902131824 66 45 0.0 2.0 0.00 0.00 0.00 78 1009.2
20260902130903 66 0 0.0 0.0 0.00 0.00 0.00 78 1009.2
20260902130003 66 0 0.0 0.0 0.00 0.00 0.00 78 1009.2
20260902125403 66 0 0.0 0.0 0.00 0.00 0.00 78 1009.2
20260902124504 66 0 0.0 0.0 0.00 0.00 0.00 78 1009.2
20260902123624 65 0 0.0 0.0 0.00 0.00 0.00 78 1008.1
20260902122703 65 0 0.0 0.0 0.00 0.00 0.00 77 1008.1
20260902121803 65 0 0.0 0.0 0.00 0.00 0.00 77 1008.1
20260902120903 65 0 0.0 0.0 0.00 0.00 0.00 77 1008.1
20260902120003 65 45 0.0 1.0 0.00 0.00 0.00 77 1008.1
20260902115403 65 0 0.0 0.0 0.00 0.00 0.00 77 1008.1
20260902114503 65 0 0.0 0.0 0.00 0.00 0.00 77 1008.1
20260902113603 65 0 0.0 0.0 0.00 0.00 0.00 77 1008.1
20260902112703 65 45 0.0 1.0 0.00 0.00 0.00 76 1007.1
20260902111824 65 0 0.0 0.0 0.00 0.00 0.00 76 1007.1
20260902110903 65 0 0.0 0.0 0.00 0.00 0.00 76 1008.1
20260902110024 65 0 0.0 0.0 0.00 0.00 0.00 76 1008.1
20260902105403 65 0 0.0 0.0 0.00 0.00 0.00 76 1007.1
20260902104503 65 0 0.0 0.0 0.00 0.00 0.00 76 1007.1
20260902103624 66 0 0.0 0.0 0.00 0.00 0.00 75 1007.1
20260902102703 66 0 0.0 0.0 0.00 0.00 0.00 75 1008.1
20260902101803 66 0 0.0 0.0 0.00 0.00 0.00 75 1008.1
20260902100903 66 0 0.0 0.0 0.00 0.00 0.00 75 1008.1
20260902100024 66 0 0.0 0.0 0.00 0.00 0.00 74 1008.1
20260902095424 66 0 0.0 0.0 0.00 0.00 0.00 74 1008.1
20260902094523 66 0 0.0 0.0 0.00 0.00 0.00 74 1008.1
20260902093603 66 0 0.0 0.0 0.00 0.00 0.00 74 1008.1
20260902092703 66 0 0.0 0.0 0.00 0.00 0.00 74 1008.1
20260902091803 66 0 0.0 0.0 0.00 0.00 0.00 74 1008.1
20260902090903 67 0 0.0 0.0 0.00 0.00 0.00 74 1008.1
20260902090004 67 0 0.0 0.0 0.00 0.00 0.00 75 1008.1
20260902085403 67 0 0.0 0.0 0.00 0.00 0.00 75 1008.1
20260902084524 67 0 0.0 0.0 0.00 0.00 0.00 75 1008.1
20260902083603 67 0 0.0 0.0 0.00 0.00 0.00 75 1008.1
20260902082703 67 0 0.0 0.0 0.00 0.00 0.00 75 1008.1
20260902081803 67 0 0.0 0.0 0.00 0.00 0.00 75 1008.1
20260902080903 67 0 0.0 0.0 0.00 0.00 0.00 74 1008.1
20260902080003 67 45 0.0 1.0 0.00 0.00 0.00 73 1008.1